Terminal Aerodrome Forecast
Issued by NWS

Home | Current Version | Previous Version | Text Only | Print | Product List | Glossary On
Versions: 1 2 3 4 5 6 7 8 9 10 11 12 13 14 15 16 17 18 19 20 21 22 23 24 25
000
FTUS46 KEKA 190600 AAA
TAFCEC
TAF AMD
KCEC 190649Z 1907/2006 00000KT 2SM BR OVC004
     FM191400 15008KT P6SM SCT012 BKN025
     FM191800 18011KT 6SM -RA BR BKN035 OVC050=

USA.gov is the U.S. government's official web portal to all federal, state and local government web resources and services.